Powrót do katalogu

FENGYUN 1C DEB

AktywnyLEO
NORAD 31565·DEBRIS·🇨🇳 China

Wystrzelony May 10, 1999 z Taiyuan Satellite Launch Center

Loading…

Następne Przeloty (najbliższe 24 godziny)

TLE

ŚwieżeSource: Space-Track

Epoka: Sep 14, 2026, 14:00 UTC

1 31565U 99025BZG 26257.58350353  .00007643  00000-0  22170-2 0  9993
2 31565 100.7135 204.3554 0052872 337.1797  22.7036 14.43948558683281

Śledź FENGYUN 1C DEB w czasie rzeczywistym z AllMySat

Download on the App Store